Probability
0 2 5 8 8 6 2 0 0 0 0 0 0 0 0 0 0 0 0 0 0 0 0 0 0 0 0 0 0 0 0 0 0 0 0 0 0 0 0 0 0 0 0
1 2 5 8 9 8 4 1 0 0 0 0 0 0 0 0 0 0 0 0 0 0 0 0 0 0 0 0 0 0 0 0 0 0 0 0 0 0 0 0 0 0 0
4 3 5 8 11 10 7 3 1 0 0 0 0 0 0 0 0 0 0 0 0 0 0 0 0 0 0 0 0 0 0 0 0 0 0 0 0 0 0 0 0 0 0
6 5 6 9 12 12 9 5 1 0 0 0 0 0 0 0 0 0 0 0 0 0 0 0 0 0 0 0 0 0 0 0 0 0 0 0 0 0 0 0 0 0 0
6 6 7 9 12 12 11 7 3 1 0 0 0 0 0 0 0 0 0 0 0 0 0 0 0 0 0 0 0 0 0 0 0 0 0 0 0 0 0 0 0 0 0
4 6 7 9 11 12 11 9 6 3 1 0 0 0 0 0 0 0 0 0 0 0 0 0 0 0 0 0 0 0 0 0 0 0 0 0 0 0 0 0 0 0 0
4 6 9 9 10 10 10 10 8 5 3 1 0 0 0 0 0 0 1 1 1 0 0 0 0 0 0 0 0 0 0 0 0 0 0 0 0 0 0 0 0 0 0
5 8 9 9 9 8 8 8 7 6 4 2 0 0 0 0 0 0 1 1 1 0 0 0 0 0 0 0 0 0 0 0 0 0 0 0 0 0 0 0 0 0 0
7 8 10 9 8 7 7 6 4 4 4 2 1 0 0 0 0 0 0 0 0 0 0 0 0 0 0 0 0 0 0 0 0 0 0 0 0 0 0 0 0 0 0
5 7 9 8 7 7 6 4 2 2 2 1 0 0 0 0 0 0 0 0 0 0 0 0 0 0 0 0 0 0 0 0 0 0 0 0 0 0 0 0 0 0 0
3 5 6 7 8 7 7 5 2 1 1 1 0 0 0 0 0 0 0 0 0 0 0 0 0 0 0 0 0 0 0 0 0 0 0 0 0 0 0 0 0 0 0
2 3 4 6 7 8 7 6 5 3 3 2 1 1 0 0 0 0 0 0 0 0 0 0 0 0 0 0 0 0 0 0 0 0 0 0 0 0 0 0 0 0 0
1 2 4 5 6 7 7 7 6 5 4 3 3 2 1 0 0 0 0 0 0 0 0 0 0 0 0 0 0 0 0 0 0 0 0 0 0 0 0 0 0 0 0
0 1 2 4 5 6 6 6 6 6 5 4 4 3 1 0 0 0 0 0 0 0 0 0 0 0 0 0 0 0 0 0 0 0 0 0 0 0 0 0 0 0 0
0 0 1 1 3 5 6 6 6 6 6 6 5 4 1 0 0 0 0 0 0 0 0 0 0 0 0 0 0 0 0 0 0 0 0 0 0 0 0 0 0 0 0
0 0 0 0 2 4 6 6 6 6 6 6 6 5 3 1 0 0 0 0 0 0 0 0 0 0 0 0 0 0 0 0 0 0 0 0 0 0 0 0 0 0 0
1 1 1 1 3 4 5 5 6 6 6 6 6 6 3 1 0 0 0 0 0 0 0 0 0 0 0 0 0 0 0 0 0 0 0 0 0 0 0 0 0 0 0
2 2 2 3 4 5 5 4 5 6 6 6 6 6 3 1 0 0 0 0 0 0 0 0 0 0 0 0 0 0 0 0 0 0 0 0 0 0 0 0 0 0 0
3 3 3 3 4 5 5 4 5 6 6 6 6 6 3 1 0 0 0 0 0 0 0 0 0 0 0 0 0 0 0 0 0 0 0 0 0 0 0 0 0 0 0
3 3 3 3 3 4 4 5 5 5 6 6 6 5 3 1 0 0 0 0 0 0 0 0 0 0 0 0 0 0 0 0 0 0 0 0 0 0 0 0 0 0 0
3 3 3 3 3 3 4 5 5 4 5 6 6 4 3 1 0 0 0 0 0 0 0 0 0 0 0 0 0 0 0 0 0 0 0 0 0 0 0 0 0 0 0
2 3 3 3 3 3 3 4 3 3 4 5 4 4 2 1 0 0 0 0 0 0 0 0 0 0 0 0 0 0 0 0 0 0 0 0 0 0 0 0 0 0 0
1 1 2 3 3 3 3 3 3 3 2 2 2 2 2 1 0 0 0 0 0 0 0 0 0 0 0 0 0 0 0 0 0 0 0 0 0 0 0 0 0 0 0
0 0 1 2 3 3 3 3 3 3 1 0 1 1 1 0 0 0 0 0 0 0 0 0 0 0 0 0 0 0 0 0 0 0 0 0 0 0 0 0 0 0 0
0 0 0 1 1 2 2 2 2 2 1 1 2 2 1 0 0 0 0 0 0 0 0 0 0 0 0 0 0 0 0 0 0 0 0 0 0 0 0 0 0 0 0
0 0 0 0 0 1 1 1 1 1 0 1 2 2 1 0 0 0 0 0 0 0 0 0 0 0 0 0 0 0 0 0 0 0 0 0 0 0 0 0 0 0 0
Wind_Speed
4 5 4 3 4 6 7 7 7 8 8 8 8 8 8 9 9 10 10 10 10 10 10 11 11 11 11 11 11 11 11 11 11 11 12 12 12 12 12 12 10 8 12
4 6 4 4 5 7 7 7 7 7 7 8 8 8 8 9 9 10 10 9 9 10 10 10 10 10 10 10 10 10 10 10 9 9 9 10 11 11 12 11 10 8 12
5 6 4 4 6 7 7 7 7 7 7 8 8 8 8 8 9 9 9 9 9 9 10 10 10 9 9 10 10 9 9 9 8 7 6 5 6 10 10 11 11 11 11
5 6 5 5 6 7 7 7 7 7 7 7 7 8 8 8 8 8 8 8 8 9 9 9 9 9 9 9 9 8 8 8 7 6 4 5 5 9 9 9 10 10 10
5 5 5 5 6 7 7 7 7 7 7 7 7 7 7 7 7 7 8 8 8 8 8 9 9 9 9 8 8 8 7 7 6 5 4 5 5 8 9 9 9 8 9
5 5 5 5 5 6 6 6 7 7 7 7 6 6 7 7 7 7 7 7 8 8 8 8 8 8 8 7 7 7 7 6 5 3 4 5 4 7 8 8 8 8 8
4 5 5 5 5 5 6 6 6 6 6 6 6 6 6 6 6 7 7 7 7 7 7 7 7 7 7 7 7 7 6 6 4 4 5 5 5 7 8 8 8 8 8
4 5 5 5 5 5 5 5 5 5 6 6 6 6 5 6 6 7 7 6 7 7 6 6 6 6 6 6 6 6 6 6 4 5 5 5 6 7 7 8 7 8 8
4 4 4 3 3 4 4 4 5 5 5 5 6 5 5 5 5 6 6 7 6 6 6 6 6 6 5 6 5 5 6 6 4 3 5 4 6 7 7 7 7 7 7
3 3 4 3 3 2 2 3 4 4 5 5 5 5 5 5 5 5 6 6 6 5 5 5 5 5 5 4 4 5 5 5 3 4 3 3 6 6 6 6 6 6 6
2 2 2 2 2 2 2 3 3 3 3 4 3 4 3 2 2 3 4 5 5 5 4 5 4 4 4 3 3 3 3 2 3 3 3 4 5 5 5 5 5 5 5
2 1 1 2 2 1 2 2 2 2 2 1 1 2 1 2 2 2 3 4 4 4 4 4 3 3 2 1 1 2 1 2 2 2 3 5 4 4 5 5 4 5 4
2 1 1 1 2 2 1 1 1 1 1 1 2 2 1 2 1 2 1 1 2 2 2 2 1 1 1 1 1 1 2 2 1 2 2 4 4 3 3 4 4 4 5
2 2 1 1 1 2 1 1 1 1 1 1 1 1 1 1 1 1 1 1 1 1 1 1 1 1 1 1 1 1 2 1 1 1 2 3 4 3 3 4 4 4 4
2 2 2 1 2 1 2 1 1 1 1 1 1 1 2 1 1 1 1 1 1 1 1 1 1 2 1 1 1 1 1 2 1 1 1 2 3 4 4 4 4 4 4
2 2 2 2 2 2 2 1 1 1 1 2 1 1 1 1 1 1 1 1 1 1 1 1 1 1 1 1 1 1 1 1 1 1 1 1 2 3 4 5 5 5 5
2 2 2 2 2 2 2 2 1 1 1 1 1 1 1 2 1 1 1 1 0 1 1 1 1 1 1 1 1 1 1 1 1 1 1 1 1 2 4 5 5 5 5
2 2 2 2 2 2 2 1 1 1 1 1 1 1 1 2 2 2 1 1 1 1 1 0 0 1 1 1 1 1 1 1 1 1 1 1 1 1 2 5 5 6 6
2 2 3 3 3 2 2 1 1 1 1 1 1 1 1 1 2 2 1 1 1 1 1 1 1 1 1 1 1 1 1 0 1 1 1 1 1 1 1 3 5 6 6
1 1 2 3 3 2 2 2 1 1 1 1 1 1 2 1 2 2 1 1 1 1 1 1 1 1 0 1 1 2 2 1 1 1 1 1 1 1 1 2 2 3 6
1 1 2 2 3 2 2 2 2 1 1 1 1 1 2 2 2 2 1 1 1 1 1 1 1 1 1 1 1 2 2 2 1 1 1 1 1 1 1 1 1 1 2
2 2 2 2 2 2 2 2 1 1 1 1 1 1 1 2 2 1 1 1 1 1 1 1 1 0 0 1 1 1 2 2 1 1 1 1 1 1 1 2 1 2 2
2 2 2 2 2 2 2 2 1 1 1 1 1 1 1 1 2 1 2 1 1 1 1 0 0 1 1 0 1 0 0 1 3 2 2 1 1 1 2 1 2 2 2
2 2 2 2 2 1 2 3 3 2 2 2 2 1 1 1 1 1 2 2 1 1 1 1 0 0 1 1 1 1 1 0 1 3 2 1 1 2 2 2 2 2 2
2 2 1 2 1 1 1 2 3 2 2 1 2 2 2 1 1 2 2 2 2 1 1 1 1 1 1 1 1 1 1 1 1 1 3 3 3 2 2 2 2 2 2
3 2 2 2 1 1 1 1 3 3 3 2 2 2 2 1 1 1 1 1 2 2 2 2 2 2 1 1 1 0 0 1 1 1 3 3 4 3 3 2 2 2 1
Wind_Direction
91 105 91 74 85 90 87 85 85 87 88 84 82 82 86 83 79 77 74 72 69 66 64 62 59 59 61 61 60 61 61 60 61 63 64 64 64 63 61 58 56 56 61
97 110 96 77 85 88 89 86 84 86 88 87 81 79 84 83 82 81 77 74 71 67 65 63 60 59 63 65 63 62 62 59 57 59 61 63 63 61 60 58 57 60 63
97 115 113 77 85 86 84 83 84 86 89 88 84 80 78 81 83 82 79 75 72 69 67 65 62 61 65 66 64 63 61 53 49 47 44 60 64 60 60 59 58 59 60
102 114 116 81 85 86 83 83 84 85 89 90 87 84 78 78 83 85 81 75 73 73 70 67 66 64 67 68 64 62 57 45 38 29 42 59 58 58 58 58 57 57 56
99 109 109 90 89 90 86 84 84 82 85 88 88 87 82 79 80 87 84 77 73 72 71 68 70 68 66 68 65 60 49 34 30 28 49 57 54 53 55 55 55 54 53
98 103 108 92 92 94 91 89 87 84 84 87 89 89 86 81 78 82 85 81 75 72 71 72 69 68 65 67 65 56 44 29 17 38 56 60 54 52 52 51 52 52 52
98 100 113 95 90 93 92 92 92 88 89 88 87 86 86 82 78 76 79 81 78 74 73 75 72 70 66 68 67 54 36 18 13 47 57 57 53 53 53 53 52 53 52
99 100 112 95 87 88 88 89 91 91 89 87 79 77 79 80 78 74 70 74 77 74 72 73 73 72 68 67 63 47 25 15 23 54 60 57 50 53 55 56 55 53 51
99 101 115 125 108 88 88 88 86 88 85 83 77 69 65 70 71 67 63 62 65 70 69 72 73 71 68 66 57 36 17 11 12 41 60 55 44 47 49 52 50 47 46
94 106 123 136 138 136 122 100 92 87 83 79 73 67 61 64 68 63 59 54 56 61 67 72 73 72 69 65 49 28 12 7 31 43 52 49 43 44 45 45 43 43 43
88 94 118 131 144 146 141 126 118 103 89 83 75 69 71 78 78 63 56 53 50 50 60 78 81 75 67 66 42 17 11 16 41 53 47 39 42 41 40 39 36 32 36
130 119 115 123 133 143 142 142 155 138 125 109 94 90 80 67 55 61 62 61 51 44 52 74 83 87 72 81 42 19 15 30 44 56 46 39 38 34 31 25 23 21 20
163 143 104 123 144 141 134 140 130 129 120 101 74 54 64 79 71 62 72 92 83 61 53 68 92 91 83 70 60 29 27 34 41 52 54 39 32 27 18 8 7 6 3
160 160 145 142 153 151 138 135 124 116 125 112 93 69 65 73 68 56 50 49 75 73 43 32 1 32 60 67 58 44 27 30 45 56 63 38 24 17 2 352 349 347 349
170 169 164 165 163 156 142 138 127 127 125 119 106 89 71 86 90 79 59 48 44 58 63 0 11 19 27 43 43 45 25 22 26 39 61 37 17 3 351 343 340 337 337
172 173 176 179 167 153 151 146 140 136 126 117 111 98 86 98 94 92 83 60 34 34 50 11 4 12 357 17 26 21 12 22 22 11 58 30 4 347 340 338 334 331 328
187 184 182 181 170 161 157 154 137 130 125 124 123 114 87 87 97 99 102 84 39 24 42 29 13 30 11 10 359 343 343 12 25 345 358 21 2 349 334 333 328 329 322
187 183 180 173 172 168 152 153 148 132 136 137 130 125 101 85 86 92 90 77 29 37 60 60 34 47 29 359 328 319 334 1 344 324 337 340 332 336 334 331 331 332 325
185 181 168 160 164 169 160 148 150 146 148 142 127 125 113 98 96 97 100 71 54 47 38 38 44 59 29 347 314 309 304 290 278 297 321 334 343 359 360 343 339 332 328
162 158 155 151 155 163 161 150 149 143 134 120 117 120 115 108 99 99 100 81 67 69 39 33 33 50 22 332 318 312 287 255 247 258 276 311 331 344 342 341 335 327 324
146 158 156 148 161 154 153 162 168 175 168 146 121 96 106 104 106 112 104 113 94 95 74 42 38 62 33 16 5 329 301 263 208 232 256 281 312 321 329 329 322 322 319
170 170 161 156 151 162 160 166 164 155 152 155 138 128 114 111 110 119 117 122 120 124 86 65 70 56 40 38 28 342 326 312 291 268 265 253 277 304 304 311 312 310 304
168 167 158 153 152 155 148 133 118 122 129 140 152 151 127 128 131 127 140 135 141 142 157 166 144 72 177 300 22 92 39 285 313 279 258 262 277 294 290 293 298 293 292
159 132 133 138 140 150 159 159 164 166 178 190 182 161 134 140 151 143 151 155 152 151 167 189 235 175 149 212 292 323 266 205 285 303 290 264 278 281 282 296 287 287 288
128 125 132 131 140 158 158 171 173 175 175 160 159 157 161 166 161 150 160 168 167 174 186 188 193 182 174 197 238 310 306 307 272 267 290 304 306 282 281 280 271 277 282
111 120 130 130 140 155 168 182 185 183 173 167 173 176 175 169 165 150 149 174 182 182 188 200 201 200 207 214 236 272 244 254 266 274 278 295 298 290 287 270 261 265 274